Terminal Aerodrome Forecast
Issued by NWS

Home | Current Version | Previous Version | Text Only | Print | Product List | Glossary On
Versions: 1 2 3 4 5 6 7 8 9 10 11 12 13 14 15 16 17 18 19 20 21 22 23 24 25
000
FTUS45 KRIW 262327
TAFPNA
TAF
KPNA 262327Z 2700/2724 23008KT P6SM SCT110
     FM270130 30007KT P6SM SKC
     FM272000 29013G21KT P6SM FEW110
      AMD LTD TO CLD VIS AND WIND=

USA.gov is the U.S. government's official web portal to all federal, state and local government web resources and services.